#timestamp,LO_Frequency,Temp,Hum 
1440100815.4,286078803.1,27.1,41.6 
1440100835.6,286078797.5,27.1,41.6 
1440100855.7,286078798.9,27.1,41.6 
1440100875.8,286078805.6,27.1,41.1 
1440100895.9,286078799.0,27.1,41.6 
1440100916.1,286078797.3,27.1,41.6 
1440100935.3,286078799.8,27.1,41.1 
1440100955.4,286078799.2,27.1,41.1 
1440100975.5,286078798.7,27.1,41.6 
1440100995.7,286078801.9,27.1,41.6 
1440101015.8,286078800.9,27.1,41.6 
1440101035.9,286078800.1,27.1,41.6 
1440101056.0,286078800.3,27.1,41.6 
1440101075.3,286078801.6,27.1,41.1 
1440101095.4,286078800.4,27.1,41.6 
1440101115.5,286078801.3,27.1,41.6 
1440101135.6,286078798.9,27.1,41.1 
1440101155.8,286078800.2,27.1,41.6 
1440101175.9,286078800.2,27.1,41.1 
1440101196.0,286078803.9,27.1,41.1 
1440101215.2,286078799.0,27.1,41.1 
1440101235.4,286078799.5,27.1,41.6 
1440101255.5,286078803.0,27.1,41.6 
1440101275.6,286078799.5,27.1,41.6 
1440101295.7,286078800.1,27.1,41.1 
1440101315.9,286078802.3,27.1,41.1 
1440101336.0,286078801.5,27.1,41.1 
1440101356.1,286078799.8,27.1,41.6 
1440101375.3,286078799.2,27.1,41.6 
1440101395.5,286078799.6,27.1,41.6 
1440101415.6,286078801.0,27.1,41.6 
1440101435.7,286078801.4,27.1,41.6 
1440101455.8,286078797.7,27.1,41.1 
1440101476.0,286078799.3,27.1,41.6 
1440101496.1,286078802.6,27.1,41.1 
1440101515.3,286078799.9,27.1,41.1 
1440101535.4,286078797.1,27.1,39.6 
1440101555.6,286078796.5,27.1,40.1 
1440101575.7,286078795.7,27.1,40.6 
1440101595.8,286078802.5,27.1,41.1 
1440101615.9,286078798.6,27.1,41.1 
1440101636.1,286078797.4,27.1,40.1 
1440101655.3,286078799.7,27.1,40.1 
1440101675.4,286078799.3,27.1,40.1 
1440101695.5,286078799.4,27.1,40.1 
1440101715.6,286078797.4,27.1,40.6 
1440101735.8,286078798.7,27.1,41.1 
1440101755.9,286078800.4,27.1,41.1 
1440101776.0,286078801.8,27.1,41.1 
1440101795.2,286078802.2,27.1,40.6 
1440101815.4,286078803.1,27.1,40.6 
1440101835.5,286078797.0,27.1,41.1 
1440101855.6,286078801.3,27.1,40.6 
1440101875.8,286078800.6,27.1,40.6 
1440101895.9,286078801.1,27.1,40.6 
1440101916.0,286078799.9,27.1,40.1 
1440101935.3,286078799.3,27.1,40.6 
1440101955.4,286078800.0,27.1,41.1 
1440101975.6,286078803.6,27.1,40.6 
1440101995.7,286078798.5,27.1,40.6 
1440102015.8,286078800.3,27.1,40.6 
1440102035.9,286078802.6,27.1,40.6 
1440102056.1,286078799.4,27.1,40.6 
1440102075.3,286078799.3,27.1,40.6 
1440102095.4,286078800.0,27.1,40.6 
1440102115.5,286078804.2,27.1,41.1 
1440102135.7,286078796.9,27.1,40.6 
1440102155.8,286078799.6,27.1,40.6 
1440102175.9,286078798.9,27.1,40.6 
1440102196.1,286078802.1,27.1,40.6 
1440102215.3,286078800.9,27.1,40.6 
1440102235.4,286078798.6,27.1,40.6 
1440102255.5,286078801.2,27.1,40.1 
1440102275.7,286078798.8,27.1,40.6 
1440102295.8,286078801.4,27.1,40.6 
1440102315.9,286078798.8,27.1,40.6 
1440102336.0,286078800.6,27.1,41.1 
1440102355.3,286078798.9,27.1,40.6 
1440102375.4,286078800.1,27.1,40.6 
1440102395.5,286078800.8,27.1,40.1 
1440102415.6,286078798.9,27.1,40.6 
1440102435.8,286078801.1,27.1,40.6 
1440102455.9,286078798.7,27.1,40.6 
1440102476.0,286078803.1,27.1,40.6 
1440102495.2,286078796.5,27.1,40.6 
1440102515.3,286078801.1,27.1,40.1 
1440102535.5,286078799.1,27.1,40.1 
1440102555.6,286078800.3,27.1,40.6 
1440102575.7,286078799.7,27.1,40.6 
1440102595.8,286078795.2,27.1,40.6 
1440102616.0,286078802.4,27.1,40.6 
1440102636.1,286078797.1,27.1,40.6 
1440102655.3,286078798.6,27.1,40.6 
1440102675.4,286078802.8,27.1,40.1 
1440102695.6,286078800.6,27.1,40.1 
1440102715.7,286078802.7,27.1,40.6 
1440102735.8,286078801.1,27.1,40.6 
1440102755.9,286078798.4,27.1,40.6 
1440102776.1,286078798.8,27.1,40.6 
1440102795.3,286078800.8,27.1,40.6 
1440102815.4,286078802.2,27.1,40.6 
1440102835.5,286078800.7,27.1,40.6 
1440102855.7,286078802.4,27.1,40.6 
1440102875.8,286078798.0,27.1,40.6 
1440102895.9,286078800.7,27.1,40.6 
1440102916.0,286078801.2,27.1,40.1 
1440102935.3,286078797.3,27.1,40.6 
1440102955.4,286078799.3,27.1,40.6 
1440102975.5,286078799.9,27.1,40.6 
1440102995.6,286078795.2,27.1,40.6 
1440103015.8,286078801.8,27.1,40.6 
1440103035.9,286078799.4,27.1,39.1 
1440103056.0,286078799.8,27.1,40.6 
1440103075.2,286078799.6,27.1,40.6 
1440103095.4,286078801.5,27.1,39.6 
1440103115.5,286078799.2,27.1,40.6 
1440103135.6,286078796.1,27.1,40.6 
1440103155.7,286078796.9,27.1,40.6 
1440103175.9,286078802.1,27.1,41.1 
1440103196.0,286078798.4,27.1,41.1 
1440103215.2,286078801.7,27.1,41.6 
1440103235.3,286078804.7,27.1,41.6 
1440103255.5,286078794.0,27.1,41.6 
1440103275.6,286078800.0,27.1,41.6 
1440103295.7,286078798.8,27.1,41.6 
1440103315.8,286078803.1,27.1,41.6 
1440103336.0,286078796.4,27.1,42.1 
1440103356.1,286078802.3,27.1,41.1 
1440103375.3,286078803.8,27.1,39.1 
1440103395.4,286078806.0,27.1,38.1 
1440103415.6,286078801.9,27.1,37.6 
1440103435.7,286078801.3,27.1,39.1 
1440103455.8,286078797.6,27.1,39.6 
1440103475.9,286078801.1,27.1,40.6 
1440103496.1,286078800.8,27.1,40.6 
1440103515.3,286078795.7,27.1,41.1 
1440103535.4,286078800.8,27.1,40.6 
1440103555.5,286078795.7,27.1,40.6 
1440103575.7,286078800.3,27.1,41.1 
1440103595.8,286078799.6,27.1,41.1 
1440103615.9,286078798.0,27.1,41.1 
1440103636.0,286078801.5,27.1,40.6 
1440103655.3,286078795.7,27.1,41.1 
1440103675.4,286078798.6,27.1,41.1 
1440103695.5,286078799.0,27.1,41.1 
1440103715.7,286078801.8,27.1,41.1 
1440103735.8,286078801.8,27.1,41.1 
1440103755.9,286078803.4,27.1,41.1 
1440103776.1,286078804.5,27.1,41.1 
1440103795.3,286078799.3,27.1,41.6 
1440103815.4,286078800.6,27.1,41.1 
1440103835.5,286078804.4,27.1,41.1 
1440103855.7,286078797.8,27.1,41.6 
1440103875.8,286078801.1,27.1,41.1 
1440103895.9,286078797.0,27.1,41.1 
1440103916.0,286078801.6,27.1,41.1 
1440103935.3,286078799.2,27.1,41.1 
1440103955.4,286078801.0,27.1,41.1 
1440103975.5,286078802.0,27.1,40.6 
1440103995.6,286078802.8,27.1,41.1 
1440104015.8,286078800.7,27.1,41.1 
1440104035.9,286078801.0,27.1,41.1 
1440104056.0,286078798.0,27.1,41.1 
1440104075.2,286078799.9,27.1,41.1 
1440104095.4,286078797.0,27.1,41.1 
1440104115.5,286078804.7,27.1,41.1 
1440104135.6,286078798.8,27.1,41.1 
1440104155.8,286078802.3,27.1,40.6 
1440104175.9,286078801.5,27.1,40.6 
1440104196.0,286078796.8,27.1,40.6 
1440104215.2,286078802.4,27.1,40.6 
1440104235.4,286078801.3,27.1,41.1 
1440104255.5,286078797.2,27.1,41.1 
1440104275.6,286078799.6,27.1,41.1 
1440104295.7,286078795.8,27.1,41.1 
1440104315.9,286078799.7,27.1,41.1 
1440104336.0,286078798.5,27.1,41.1 
1440104356.1,286078799.6,27.1,40.1 
1440104375.3,286078798.4,27.1,40.6 
1440104395.4,286078800.5,27.1,40.6 
